Time,TemperatureF,DewpointF,PressureIn,WindDirection,WindDirectionDegrees,WindSpeedMPH,WindSpeedGustMPH,Humidity,HourlyPrecipIn,Conditions,Clouds,dailyrainin,SolarRadiationWatts/m^2,SoftwareType,DateUTC
2013-03-25 00:22:00,53.0,50.0,-100.00,SE,125,10.0,12.0,91,0.00,,,0.00,0.000000,,2013-03-25 10:22:00,
2013-03-25 00:32:00,53.0,50.0,-100.00,SE,125,10.0,12.0,91,0.00,,,0.00,0.000000,,2013-03-25 10:32:00,
2013-03-25 00:42:00,53.0,50.0,-100.00,SE,125,10.0,12.0,91,0.00,,,0.00,0.000000,,2013-03-25 10:42:00,
2013-03-25 00:52:00,53.0,50.0,-100.00,SE,125,10.0,12.0,91,0.00,,,0.00,0.000000,,2013-03-25 10:52:00,
2013-03-25 01:23:00,56.0,51.0,-100.00,SSE,149,9.0,13.0,84,0.00,,,0.00,0.000000,,2013-03-25 11:23:00,
2013-03-25 01:32:00,56.0,51.0,-100.00,SSE,149,9.0,13.0,84,0.00,,,0.00,0.000000,,2013-03-25 11:32:00,
2013-03-25 01:42:00,56.0,51.0,-100.00,SSE,149,9.0,13.0,84,0.00,,,0.00,0.000000,,2013-03-25 11:42:00,
2013-03-25 01:52:00,56.0,51.0,-100.00,SSE,149,9.0,13.0,84,0.00,,,0.00,0.000000,,2013-03-25 11:52:00,
2013-03-25 02:23:00,54.0,51.0,-100.00,SE,124,9.0,14.0,89,0.00,,,0.00,0.000000,,2013-03-25 12:23:00,
2013-03-25 02:32:00,54.0,51.0,-100.00,SE,124,9.0,14.0,89,0.00,,,0.00,0.000000,,2013-03-25 12:32:00,
2013-03-25 02:42:00,54.0,51.0,-100.00,SE,124,9.0,14.0,89,0.00,,,0.00,0.000000,,2013-03-25 12:42:00,
2013-03-25 02:52:00,54.0,51.0,-100.00,SE,124,9.0,14.0,89,0.00,,,0.00,0.000000,,2013-03-25 12:52:00,
2013-03-25 03:22:00,52.0,49.0,-100.00,SE,133,10.0,15.0,88,0.00,,,0.00,0.000000,,2013-03-25 13:22:00,
2013-03-25 03:32:00,52.0,49.0,-100.00,SE,133,10.0,15.0,88,0.00,,,0.00,0.000000,,2013-03-25 13:32:00,
2013-03-25 03:42:00,52.0,49.0,-100.00,SE,133,10.0,15.0,88,0.00,,,0.00,0.000000,,2013-03-25 13:42:00,
2013-03-25 03:52:00,52.0,49.0,-100.00,SE,133,10.0,15.0,88,0.00,,,0.00,0.000000,,2013-03-25 13:52:00,
2013-03-25 04:22:00,52.0,49.0,-100.00,ESE,122,11.0,14.0,88,0.00,,,0.00,0.000000,,2013-03-25 14:22:00,
2013-03-25 04:32:00,52.0,49.0,-100.00,ESE,122,11.0,14.0,88,0.00,,,0.00,0.000000,,2013-03-25 14:32:00,
2013-03-25 04:42:00,52.0,49.0,-100.00,ESE,122,11.0,14.0,88,0.00,,,0.00,0.000000,,2013-03-25 14:42:00,
2013-03-25 04:52:00,52.0,49.0,-100.00,ESE,122,11.0,14.0,88,0.00,,,0.00,0.000000,,2013-03-25 14:52:00,
2013-03-25 05:22:00,53.0,48.0,-100.00,ESE,110,13.0,17.0,84,0.00,,,0.00,0.000000,,2013-03-25 15:22:00,
2013-03-25 05:32:00,53.0,48.0,-100.00,ESE,110,13.0,17.0,84,0.00,,,0.00,0.000000,,2013-03-25 15:32:00,
2013-03-25 05:42:00,53.0,48.0,-100.00,ESE,110,13.0,17.0,84,0.00,,,0.00,0.000000,,2013-03-25 15:42:00,
2013-03-25 05:52:00,53.0,48.0,-100.00,ESE,110,13.0,17.0,84,0.00,,,0.00,0.000000,,2013-03-25 15:52:00,
2013-03-25 06:23:00,50.0,46.0,-100.00,SE,131,11.0,17.0,86,0.00,,,0.00,0.000000,,2013-03-25 16:23:00,
2013-03-25 06:32:00,50.0,46.0,-100.00,SE,131,11.0,17.0,86,0.00,,,0.00,0.000000,,2013-03-25 16:32:00,
2013-03-25 06:42:00,50.0,46.0,-100.00,SE,131,11.0,17.0,86,0.00,,,0.00,0.000000,,2013-03-25 16:42:00,
2013-03-25 06:52:00,50.0,46.0,-100.00,SE,131,11.0,17.0,86,0.00,,,0.00,0.000000,,2013-03-25 16:52:00,
2013-03-25 07:23:00,53.0,48.0,-100.00,ESE,113,6.0,13.0,84,0.00,,,0.00,8.000000,,2013-03-25 17:23:00,
2013-03-25 07:32:00,53.0,48.0,-100.00,ESE,113,6.0,13.0,84,0.00,,,0.00,8.000000,,2013-03-25 17:32:00,
2013-03-25 07:42:00,53.0,48.0,-100.00,ESE,113,6.0,13.0,84,0.00,,,0.00,8.000000,,2013-03-25 17:42:00,
2013-03-25 07:52:00,53.0,48.0,-100.00,ESE,113,6.0,13.0,84,0.00,,,0.00,8.000000,,2013-03-25 17:52:00,
2013-03-25 08:22:00,65.0,49.0,-100.00,NNW,331,2.0,12.0,57,0.00,,,0.00,204.000000,,2013-03-25 18:22:00,
2013-03-25 08:32:00,65.0,49.0,-100.00,NNW,331,2.0,12.0,57,0.00,,,0.00,204.000000,,2013-03-25 18:32:00,
2013-03-25 08:42:00,65.0,49.0,-100.00,NNW,331,2.0,12.0,57,0.00,,,0.00,204.000000,,2013-03-25 18:42:00,
2013-03-25 08:51:00,65.0,49.0,-100.00,NNW,331,2.0,12.0,57,0.00,,,0.00,204.000000,,2013-03-25 18:51:00,
2013-03-25 09:22:00,64.0,54.0,-100.00,NNW,328,4.0,10.0,69,0.00,,,0.00,487.000000,,2013-03-25 19:22:00,
2013-03-25 09:32:00,64.0,54.0,-100.00,NNW,328,4.0,10.0,69,0.00,,,0.00,487.000000,,2013-03-25 19:32:00,
2013-03-25 09:42:00,64.0,54.0,-100.00,NNW,328,4.0,10.0,69,0.00,,,0.00,487.000000,,2013-03-25 19:42:00,
2013-03-25 09:52:00,64.0,54.0,-100.00,NNW,328,4.0,10.0,69,0.00,,,0.00,487.000000,,2013-03-25 19:52:00,
2013-03-25 10:22:00,65.0,53.0,-100.00,NNW,332,7.0,13.0,66,0.00,,,0.00,740.000000,,2013-03-25 20:22:00,
2013-03-25 10:32:00,65.0,53.0,-100.00,NNW,332,7.0,13.0,66,0.00,,,0.00,740.000000,,2013-03-25 20:32:00,
2013-03-25 10:42:00,65.0,53.0,-100.00,NNW,332,7.0,13.0,66,0.00,,,0.00,740.000000,,2013-03-25 20:42:00,
2013-03-25 10:52:00,65.0,53.0,-100.00,NNW,332,7.0,13.0,66,0.00,,,0.00,740.000000,,2013-03-25 20:52:00,
2013-03-25 11:22:00,69.0,57.0,-100.00,NNW,340,7.0,15.0,66,0.00,,,0.00,953.000000,,2013-03-25 21:22:00,
2013-03-25 11:33:00,69.0,57.0,-100.00,NNW,340,7.0,15.0,66,0.00,,,0.00,953.000000,,2013-03-25 21:33:00,
2013-03-25 11:42:00,69.0,57.0,-100.00,NNW,340,7.0,15.0,66,0.00,,,0.00,953.000000,,2013-03-25 21:42:00,
2013-03-25 11:52:00,69.0,57.0,-100.00,NNW,340,7.0,15.0,66,0.00,,,0.00,953.000000,,2013-03-25 21:52:00,
2013-03-25 12:23:00,70.0,57.0,-100.00,NE,40,9.0,17.0,64,0.00,,,0.00,962.000000,,2013-03-25 22:23:00,
2013-03-25 12:32:00,70.0,57.0,-100.00,NE,40,9.0,17.0,64,0.00,,,0.00,962.000000,,2013-03-25 22:32:00,
2013-03-25 12:42:00,70.0,57.0,-100.00,NE,40,9.0,17.0,64,0.00,,,0.00,962.000000,,2013-03-25 22:42:00,
2013-03-25 12:52:00,70.0,57.0,-100.00,NE,40,9.0,17.0,64,0.00,,,0.00,962.000000,,2013-03-25 22:52:00,
2013-03-25 13:22:00,69.0,60.0,-100.00,NW,309,12.0,18.0,72,0.00,,,0.00,574.000000,,2013-03-25 23:22:00,
2013-03-25 13:32:00,69.0,60.0,-100.00,NW,309,12.0,18.0,72,0.00,,,0.00,574.000000,,2013-03-25 23:32:00,
2013-03-25 13:42:00,69.0,60.0,-100.00,NW,309,12.0,18.0,72,0.00,,,0.00,574.000000,,2013-03-25 23:42:00,
2013-03-25 13:52:00,69.0,60.0,-100.00,NW,309,12.0,18.0,72,0.00,,,0.00,574.000000,,2013-03-25 23:52:00,
2013-03-25 14:22:00,65.0,57.0,-100.00,NW,308,13.0,20.0,76,0.00,,,0.00,446.000000,,2013-03-26 00:22:00,
2013-03-25 14:32:00,65.0,57.0,-100.00,NW,308,13.0,20.0,76,0.00,,,0.00,446.000000,,2013-03-26 00:32:00,
2013-03-25 14:42:00,65.0,57.0,-100.00,NW,308,13.0,20.0,76,0.00,,,0.00,446.000000,,2013-03-26 00:42:00,
2013-03-25 14:52:00,65.0,57.0,-100.00,NW,308,13.0,20.0,76,0.00,,,0.00,446.000000,,2013-03-26 00:52:00,
2013-03-25 15:22:00,65.0,59.0,-100.00,WNW,296,10.0,18.0,82,0.00,,,0.00,162.000000,,2013-03-26 01:22:00,
2013-03-25 15:32:00,65.0,59.0,-100.00,WNW,296,10.0,18.0,82,0.00,,,0.00,162.000000,,2013-03-26 01:32:00,
2013-03-25 15:42:00,65.0,59.0,-100.00,WNW,296,10.0,18.0,82,0.00,,,0.00,162.000000,,2013-03-26 01:42:00,
2013-03-25 15:52:00,65.0,59.0,-100.00,WNW,296,10.0,18.0,82,0.00,,,0.00,162.000000,,2013-03-26 01:52:00,
2013-03-25 16:22:00,61.0,60.0,-100.00,North,359,8.0,16.0,97,0.00,,,0.00,87.000000,,2013-03-26 02:22:00,
2013-03-25 16:32:00,61.0,60.0,-100.00,North,359,8.0,16.0,97,0.00,,,0.00,87.000000,,2013-03-26 02:32:00,
2013-03-25 16:42:00,61.0,60.0,-100.00,North,359,8.0,16.0,97,0.00,,,0.00,87.000000,,2013-03-26 02:42:00,
2013-03-25 16:52:00,61.0,60.0,-100.00,North,359,8.0,16.0,97,0.00,,,0.00,87.000000,,2013-03-26 02:52:00,
2013-03-25 17:22:00,61.0,60.0,-100.00,North,7,3.0,12.0,97,0.00,,,0.00,56.000000,,2013-03-26 03:22:00,
2013-03-25 17:33:00,61.0,60.0,-100.00,North,7,3.0,12.0,97,0.00,,,0.00,56.000000,,2013-03-26 03:33:00,
2013-03-25 17:42:00,61.0,60.0,-100.00,North,7,3.0,12.0,97,0.00,,,0.00,56.000000,,2013-03-26 03:42:00,
2013-03-25 17:52:00,61.0,60.0,-100.00,North,7,3.0,12.0,97,0.00,,,0.00,56.000000,,2013-03-26 03:52:00,
2013-03-25 18:23:00,61.0,60.0,-100.00,North,356,5.0,8.0,97,0.00,,,0.00,53.000000,,2013-03-26 04:23:00,
2013-03-25 18:32:00,61.0,60.0,-100.00,North,356,5.0,8.0,97,0.00,,,0.00,53.000000,,2013-03-26 04:32:00,
2013-03-25 18:43:00,61.0,60.0,-100.00,North,356,5.0,8.0,97,0.00,,,0.00,53.000000,,2013-03-26 04:43:00,
2013-03-25 18:52:00,61.0,60.0,-100.00,North,356,5.0,8.0,97,0.00,,,0.00,53.000000,,2013-03-26 04:52:00,
2013-03-25 19:22:00,61.0,60.0,-100.00,North,356,3.0,7.0,98,0.00,,,0.00,4.000000,,2013-03-26 05:22:00,
2013-03-25 19:32:00,61.0,60.0,-100.00,North,356,3.0,7.0,98,0.00,,,0.00,4.000000,,2013-03-26 05:32:00,
2013-03-25 19:42:00,61.0,60.0,-100.00,North,356,3.0,7.0,98,0.00,,,0.00,4.000000,,2013-03-26 05:42:00,
2013-03-25 19:52:00,61.0,60.0,-100.00,North,356,3.0,7.0,98,0.00,,,0.00,4.000000,,2013-03-26 05:52:00,
2013-03-25 20:22:00,58.0,58.0,-100.00,ENE,75,2.0,8.0,99,0.00,,,0.00,0.000000,,2013-03-26 06:22:00,
2013-03-25 20:32:00,58.0,58.0,-100.00,ENE,75,2.0,8.0,99,0.00,,,0.00,0.000000,,2013-03-26 06:32:00,
2013-03-25 20:42:00,58.0,58.0,-100.00,ENE,75,2.0,8.0,99,0.00,,,0.00,0.000000,,2013-03-26 06:42:00,
2013-03-25 20:52:00,58.0,58.0,-100.00,ENE,75,2.0,8.0,99,0.00,,,0.00,0.000000,,2013-03-26 06:52:00,
2013-03-25 21:22:00,54.0,53.0,-100.00,SE,135,8.0,10.0,97,0.00,,,0.00,0.000000,,2013-03-26 07:22:00,
2013-03-25 21:32:00,54.0,53.0,-100.00,SE,135,8.0,10.0,97,0.00,,,0.00,0.000000,,2013-03-26 07:32:00,
2013-03-25 21:42:00,54.0,53.0,-100.00,SE,135,8.0,10.0,97,0.00,,,0.00,0.000000,,2013-03-26 07:42:00,
2013-03-25 21:52:00,54.0,53.0,-100.00,SE,135,8.0,10.0,97,0.00,,,0.00,0.000000,,2013-03-26 07:52:00,
2013-03-25 22:22:00,54.0,53.0,-100.00,ESE,120,7.0,9.0,97,0.00,,,0.00,0.000000,,2013-03-26 08:22:00,
2013-03-25 22:32:00,54.0,53.0,-100.00,ESE,120,7.0,9.0,97,0.00,,,0.00,0.000000,,2013-03-26 08:32:00,
2013-03-25 22:42:00,54.0,53.0,-100.00,ESE,120,7.0,9.0,97,0.00,,,0.00,0.000000,,2013-03-26 08:42:00,
2013-03-25 22:51:00,54.0,53.0,-100.00,ESE,120,7.0,9.0,97,0.00,,,0.00,0.000000,,2013-03-26 08:51:00,
2013-03-25 23:22:00,57.0,56.0,-100.00,SE,140,4.0,8.0,96,0.00,,,0.00,0.000000,,2013-03-26 09:22:00,
2013-03-25 23:32:00,57.0,56.0,-100.00,SE,140,4.0,8.0,96,0.00,,,0.00,0.000000,,2013-03-26 09:32:00,
2013-03-25 23:42:00,57.0,56.0,-100.00,SE,140,4.0,8.0,96,0.00,,,0.00,0.000000,,2013-03-26 09:42:00,
2013-03-25 23:52:00,57.0,56.0,-100.00,SE,140,4.0,8.0,96,0.00,,,0.00,0.000000,,2013-03-26 09:52:00,